This demonstration page uses our WeatherBlox Daily Observations layout. Learn more.

Left ArrowRight Arrow

34.02893, -84.19858

Hourly Observations for July 8, 2018

Temp ( °F °C ) Dew Point ( °F °C ) Humidity (%) Winds ( mph kmh ) Pressure ( in mb ) Visibility ( mi km ) Precip ( " mm )
12:26 am 00:26 Cloudy 73 22.8 68 20 84 84 Calm 30.18 1022 10 16 0.00 0.00
12:53 am 00:53 Cloudy 72 22.2 68 20 87 87 VRB 6 9 30.17 1022 9 14 0.00 0.00
1:19 am 01:19 Cloudy 72 22.2 67 19.4 84 84 VRB 7 11 30.18 1022 10 16 0.00 0.00
1:53 am 01:53 Cloudy 71 21.7 67 19.4 87 87 VRB 5 7 30.16 1021 8 13 0.00 0.00
2:53 am 02:53 Cloudy 71 21.7 67 19.4 87 87 VRB 7 11 30.15 1021 10 16 0.00 0.00
3:53 am 03:53 Cloudy 70 21.1 66 18.9 87 87 ENE 8 13 30.16 1021 10 16 0.00 0.00
4:53 am 04:53 Cloudy 70 21.1 66 18.9 87 87 VRB 5 7 30.17 1022 10 16 0.00 0.00
5:02 am 05:02 Cloudy with Light Rain 70 21.1 66 18.9 87 87 VRB 6 9 30.18 1022 9 14 0.00 0.03
5:43 am 05:43 Cloudy with Light Rain 69 20.6 66 18.9 90 90 VRB 3 6 30.21 1023 7 11 0.01 0.25
5:53 am 05:53 Cloudy 69 20.6 66 18.9 90 90 VRB 5 7 30.19 1022 10 16 0.01 0.25
6:16 am 06:16 Cloudy 69 20.6 66 18.9 90 90 VRB 3 6 30.21 1023 10 16 0.00 0.00
6:53 am 06:53 Cloudy 69 20.6 66 18.9 90 90 VRB 6 9 30.21 1023 10 16 0.00 0.00
7:35 am 07:35 Cloudy 70 21.1 65 18.3 84 84 VRB 6 9 30.24 1024 10 16 0.00 0.00
7:53 am 07:53 Cloudy 70 21.1 65 18.3 84 84 VRB 6 9 30.23 1024 10 16 0.00 0.00
8:53 am 08:53 Cloudy 70 21.1 64 17.8 82 82 E 8 13 30.24 1024 10 16 0.00 0.00
9:53 am 09:53 Cloudy 72 22.2 64 17.8 76 76 VRB 6 9 30.25 1024 10 16 0.00 0.00
10:53 am 10:53 Mostly Sunny 74 23.3 60 15.6 62 62 ENE 9 15 30.25 1024 10 16 0.00 0.00
11:53 am 11:53 Sunny 76 24.4 61 16.1 60 60 VRB 7 11 30.24 1024 10 16 0.00 0.00
12:53 pm 12:53 Sunny 78 25.6 62 16.7 58 58 VRB 3 6 30.24 1024 10 16 0.00 0.00
1:53 pm 13:53 Sunny 81 27.2 63 17.2 54 54 VRB 5 7 30.22 1023 10 16 0.00 0.00
2:53 pm 14:53 Sunny 83 28.3 64 17.8 53 53 VRB 5 7 30.20 1023 10 16 0.00 0.00
3:53 pm 15:53 Sunny 83 28.3 64 17.8 53 53 VRB 3 6 30.18 1022 10 16 0.00 0.00
4:53 pm 16:53 Sunny 83 28.3 64 17.8 53 53 SE 6 9 30.17 1022 10 16 0.00 0.00
5:53 pm 17:53 Sunny 83 28.3 65 18.3 55 55 VRB 3 6 30.17 1022 10 16 0.00 0.00
6:53 pm 18:53 Sunny 83 28.3 64 17.8 53 53 VRB 3 6 30.16 1022 10 16 0.00 0.00
7:53 pm 19:53 Sunny 81 27.2 64 17.8 57 57 ESE 3 6 30.17 1022 10 16 0.00 0.00
8:53 pm 20:53 Clear 78 25.6 63 17.2 60 60 E 3 6 30.19 1022 10 16 0.00 0.00
9:53 pm 21:53 Clear 76 24.4 63 17.2 64 64 E 3 6 30.21 1023 10 16 0.00 0.00
10:53 pm 22:53 Clear 74 23.3 64 17.8 71 71 E 3 6 30.24 1024 10 16 0.00 0.00
11:53 pm 23:53 Clear 73 22.8 64 17.8 74 74 Calm 30.24 1024 10 16 0.00 0.00

Powered by AerisWeather